, NV

(GMT )
Eureka Airport

Weather History for K05U - May, 2013

Change the Weather History Date:

Tuesday, May 21, 2013

  Actual Average Record
Temperature  
Mean Temperature 58 °F -  
Max Temperature 80 °F - - ()
Min Temperature 37 °F - - ()
Degree Days  
Heating Degree Days 6    
Growing Degree Days 8 (Base 50)    
Moisture  
Dew Point 19 °F    
Average Humidity 27    
Maximum Humidity 56    
Minimum Humidity 8    
Precipitation  
Precipitation 0.00 in - - ()
Sea Level Pressure  
Sea Level Pressure 29.94 in    
Wind  
Wind Speed 7 mph (SW)    
Max Wind Speed 23 mph    
Max Gust Speed 61 mph    
Visibility 10 miles    
Events      
Averages and records for this station are not official NWS values.
T = Trace of Precipitation, MM = Missing Value Source: NWS Daily Summary

Daily Weather History Graph

Daily Weather History Graph

Search for Another Location

Airport or City:

Trip Planner

Search our weather history database for the weather conditions in past years. The results will help you decide how hot, cold, wet, or windy it might be!

Date:

Astronomy

May. 21, 2013 Rise Set
Actual Time 5:24 AM PDT 7:57 PM PDT
Civil Twilight 4:53 AM PDT 8:28 PM PDT
Nautical Twilight 4:15 AM PDT 9:06 PM PDT
Astronomical Twilight 3:32 AM PDT 9:50 PM PDT
Moon 4:16 PM PDT (5/21) 2:54 AM PDT (5/21)
Length of Visible Light 15h 34m
Length of Day
14h 32m
Waxing Gibbous, 85% of the Moon is Illuminated
May 21
Waxing Gibbous
May 24
Full
May 31
Last Quarter
Jun 8
New
Jun 16
First Quarter

Hourly Weather History & Observations

Time (PDT) Temp. Windchill Dew Point Humidity Pressure Visibility Wind Dir Wind Speed Gust Speed Precip Events Conditions
12:10 AM 41.0 °F - 24.8 °F 53% 30.14 in 10.0 mi Calm Calm - N/A   Clear
12:30 AM 42.8 °F 40.1 °F 24.8 °F 49% 30.13 in 10.0 mi South 4.6 mph - N/A   Clear
12:50 AM 42.8 °F 39.3 °F 24.8 °F 49% 30.13 in 10.0 mi South 5.8 mph - N/A   Clear
1:10 AM 41.0 °F 37.1 °F 24.8 °F 53% 30.11 in 10.0 mi South 5.8 mph - N/A   Clear
1:30 AM 39.2 °F 37.0 °F 24.8 °F 56% 30.10 in 10.0 mi South 3.5 mph - N/A   Clear
1:50 AM 39.2 °F 35.0 °F 24.8 °F 56% 30.10 in 10.0 mi SSW 5.8 mph - N/A   Clear
2:10 AM 39.2 °F 33.6 °F 24.8 °F 56% 30.09 in 10.0 mi SSW 8.1 mph - N/A   Clear
2:30 AM 39.2 °F 35.0 °F 24.8 °F 56% 30.09 in 10.0 mi SSW 5.8 mph - N/A   Clear
2:50 AM 37.4 °F 32.1 °F 23.0 °F 56% 30.08 in 10.0 mi SSW 6.9 mph - N/A   Clear
3:10 AM 37.4 °F 32.8 °F 23.0 °F 56% 30.07 in 10.0 mi South 5.8 mph - N/A   Clear
3:30 AM 39.2 °F 33.0 °F 23.0 °F 52% 30.07 in 10.0 mi SSW 9.2 mph - N/A   Clear
3:50 AM 39.2 °F 33.6 °F 23.0 °F 52% 30.06 in 10.0 mi SW 8.1 mph - N/A   Clear
4:10 AM 39.2 °F 33.6 °F 23.0 °F 52% 30.06 in 10.0 mi SSW 8.1 mph - N/A   Clear
4:30 AM 37.4 °F 32.8 °F 23.0 °F 56% 30.06 in 10.0 mi SSW 5.8 mph - N/A   Clear
4:50 AM 37.4 °F 33.8 °F 23.0 °F 56% 30.06 in 10.0 mi SSW 4.6 mph - N/A   Clear
5:10 AM 37.4 °F 31.4 °F 23.0 °F 56% 30.06 in 10.0 mi SW 8.1 mph - N/A   Clear
5:30 AM 37.4 °F 31.4 °F 23.0 °F 56% 30.06 in 10.0 mi SW 8.1 mph - N/A   Clear
5:50 AM 39.2 °F 34.2 °F 23.0 °F 52% 30.05 in 10.0 mi SSW 6.9 mph - N/A   Clear
6:10 AM 41.0 °F 36.4 °F 23.0 °F 49% 30.05 in 10.0 mi SW 6.9 mph - N/A   Clear
6:30 AM 41.0 °F 36.4 °F 23.0 °F 49% 30.05 in 10.0 mi SW 6.9 mph - N/A   Clear
6:50 AM 44.6 °F 43.1 °F 23.0 °F 43% 30.05 in 10.0 mi WSW 3.5 mph - N/A   Clear
7:10 AM 44.6 °F - 24.8 °F 46% 30.04 in 10.0 mi Calm Calm - N/A   Clear
7:30 AM 48.2 °F - 26.6 °F 43% 30.04 in 10.0 mi Calm Calm - N/A   Clear
7:50 AM 53.6 °F - 24.8 °F 33% 30.04 in 10.0 mi Calm Calm - N/A   Clear
8:10 AM 55.4 °F - 28.4 °F 36% 30.03 in 10.0 mi Calm Calm - N/A   Clear
8:30 AM 59.0 °F - 26.6 °F 29% 30.03 in 10.0 mi Calm Calm - N/A   Clear
8:50 AM 59.0 °F - 26.6 °F 29% 30.03 in 10.0 mi Calm Calm - N/A   Clear
9:10 AM 57.2 °F - 24.8 °F 29% 30.03 in 10.0 mi Calm Calm - N/A   Clear
9:30 AM 59.0 °F - 24.8 °F 27% 30.02 in 10.0 mi Calm Calm - N/A   Clear
9:50 AM 62.6 °F - 23.0 °F 22% 30.01 in 10.0 mi South 3.5 mph - N/A   Clear
10:10 AM 66.2 °F - 19.4 °F 17% 30.00 in 10.0 mi SSW 6.9 mph - N/A   Clear
10:30 AM 68.0 °F - 17.6 °F 15% 29.99 in 10.0 mi SSW 13.8 mph 18.4 mph N/A   Clear
10:50 AM 71.6 °F - 15.8 °F 12% 29.98 in 10.0 mi South 17.3 mph 23.0 mph N/A   Clear
11:10 AM 73.4 °F - 17.6 °F 12% 29.97 in 10.0 mi South 16.1 mph 25.3 mph N/A   Clear
11:30 AM 73.4 °F - 15.8 °F 11% 29.96 in 10.0 mi South 17.3 mph 23.0 mph N/A   Clear
11:50 AM 75.2 °F - 15.8 °F 11% 29.95 in 10.0 mi SW 16.1 mph 23.0 mph N/A   Clear
12:10 PM 75.2 °F - 14.0 °F 10% 29.93 in 10.0 mi South 15.0 mph 19.6 mph N/A   Partly Cloudy
12:30 PM 77.0 °F - 15.8 °F 10% 29.92 in 10.0 mi SSW 18.4 mph 24.2 mph N/A   Clear
12:50 PM 77.0 °F - 15.8 °F 10% 29.90 in 10.0 mi South 18.4 mph 29.9 mph N/A   Clear
1:10 PM 75.2 °F - 17.6 °F 11% 29.89 in 10.0 mi SSW 20.7 mph 26.5 mph N/A   Clear
1:30 PM 75.2 °F - 15.8 °F 11% 29.88 in 10.0 mi South 20.7 mph 25.3 mph N/A   Clear
1:50 PM 77.0 °F - 17.6 °F 11% 29.88 in 10.0 mi SSW 23.0 mph 29.9 mph N/A   Clear
2:10 PM 77.0 °F - 15.8 °F 10% 29.87 in 10.0 mi SSW 20.7 mph 31.1 mph N/A   Clear
2:30 PM 75.2 °F - 15.8 °F 11% 29.86 in 10.0 mi WSW 19.6 mph 27.6 mph N/A   Clear
2:50 PM 77.0 °F - 15.8 °F 10% 29.85 in 10.0 mi West 12.7 mph 27.6 mph N/A   Clear
3:10 PM 77.0 °F - 14.0 °F 9% 29.84 in 10.0 mi WSW 15.0 mph 29.9 mph N/A   Clear
3:30 PM 80.6 °F - 14.0 °F 8% 29.84 in 10.0 mi SW 18.4 mph 26.5 mph N/A   Clear
3:50 PM 77.0 °F - 14.0 °F 9% 29.83 in 10.0 mi West 11.5 mph 21.9 mph N/A   Clear
4:10 PM 77.0 °F - 14.0 °F 9% 29.82 in 10.0 mi West 16.1 mph 26.5 mph N/A   Clear
4:30 PM 77.0 °F - 14.0 °F 9% 29.81 in 10.0 mi WSW 13.8 mph 25.3 mph N/A   Clear
4:50 PM 77.0 °F - 15.8 °F 10% 29.81 in 10.0 mi SSW 13.8 mph 20.7 mph N/A   Clear
5:10 PM 75.2 °F - 14.0 °F 10% 29.81 in 10.0 mi West 11.5 mph 18.4 mph N/A   Clear
5:30 PM 75.2 °F - 15.8 °F 11% 29.80 in 10.0 mi West 13.8 mph 28.8 mph N/A   Clear
5:50 PM 73.4 °F - 17.6 °F 12% 29.80 in 10.0 mi WNW 9.2 mph 20.7 mph N/A   Clear
6:10 PM 71.6 °F - 21.2 °F 15% 29.81 in 5.0 mi South 9.2 mph 61.0 mph N/A   Partly Cloudy
6:30 PM 71.6 °F - 19.4 °F 14% 29.79 in 10.0 mi SSW 6.9 mph - N/A   Clear
6:50 PM 73.4 °F - 19.4 °F 13% 29.78 in 10.0 mi West 16.1 mph - N/A   Clear
7:10 PM 73.4 °F - 19.4 °F 13% 29.79 in 10.0 mi West 11.5 mph 23.0 mph N/A   Partly Cloudy
7:30 PM 71.6 °F - 17.6 °F 13% 29.79 in 10.0 mi WNW 13.8 mph 25.3 mph N/A   Clear
7:50 PM 68.0 °F - 15.8 °F 13% 29.79 in 10.0 mi WNW 13.8 mph 26.5 mph N/A   Clear
8:10 PM 68.0 °F - 14.0 °F 12% 29.80 in 10.0 mi West 16.1 mph 21.9 mph N/A   Clear
8:30 PM 66.2 °F - 10.4 °F 11% 29.81 in 10.0 mi WNW 13.8 mph 20.7 mph N/A   Clear
8:50 PM 64.4 °F - 8.6 °F 11% 29.82 in 10.0 mi WNW 11.5 mph 20.7 mph N/A   Clear
9:10 PM 62.6 °F - 14.0 °F 15% 29.84 in 10.0 mi East 6.9 mph - N/A   Clear
9:30 PM 59.0 °F - 15.8 °F 19% 29.84 in 7.0 mi Calm Calm - N/A   Partly Cloudy
9:50 PM 57.2 °F - 17.6 °F 21% 29.84 in 7.0 mi Calm Calm - N/A   Clear
10:10 PM 55.4 °F - 15.8 °F 21% 29.84 in 6.0 mi NW 6.9 mph - N/A   Clear
10:30 PM 53.6 °F - 15.8 °F 22% 29.84 in 7.0 mi West 5.8 mph - N/A   Clear
10:50 PM 53.6 °F - 17.6 °F 24% 29.85 in 5.0 mi Calm Calm - N/A   Clear
11:10 PM 57.2 °F - 17.6 °F 21% 29.85 in 5.0 mi East 4.6 mph - N/A   Clear
11:30 PM 53.6 °F - 19.4 °F 26% 29.85 in 5.0 mi Calm Calm - N/A   Clear
11:50 PM 50.0 °F - 17.6 °F 28% 29.85 in 6.0 mi Calm Calm - N/A   Clear